DateTimeUTC,F1_A11,F1_S11,BsB_S11,BsG_S11,BsR_S11,BbsB_S11,BbsG_S11,BbsR_S11,BaB_A11,BaG_A11,BaR_A11,Tu_S11,T_S11,Uu_S11,U_S11,P_S11,T1_A11
2021-08-14T15:00:00Z,00000200,20000000,,,,,,,0000.08,-000.35,-000.32,19.9,26.1,22.9,15.7,0674.7,31.0
2021-08-14T15:01:00Z,00000200,20000000,,,,,,,-000.30,0000.26,0000.17,19.9,26.1,22.9,15.7,0674.7,30.9
2021-08-14T15:02:00Z,00000200,20000000,,,,,,,0000.14,-000.27,-000.28,19.9,26.1,22.9,15.7,0674.7,30.9
2021-08-14T15:03:00Z,00000200,60000000,,,,,,,0000.11,-000.26,0000.19,19.9,26.1,22.9,15.7,0674.7,30.9
2021-08-14T15:04:00Z,00000200,40000000,0000.15,0000.12,0000.11,0000.26,0000.10,-000.06,-000.31,-000.13,-000.55,20.0,26.0,22.6,15.8,0675.5,31.0
2021-08-14T15:05:00Z,00000200,00000000,0000.84,0000.22,0000.18,0000.09,-000.09,0000.06,-000.20,-000.15,0000.12,20.0,25.9,22.6,15.8,0675.6,31.0
2021-08-14T15:06:00Z,00000200,00000000,-000.50,0000.22,-000.23,0000.29,-000.05,-000.17,0000.41,0000.14,0000.09,20.1,26.0,22.7,15.9,0675.7,31.0
2021-08-14T15:07:00Z,00000200,00000000,-000.58,0000.37,0000.11,-000.26,-000.14,0000.40,-000.30,0000.20,-000.07,20.1,26.0,22.7,15.9,0675.6,31.0
2021-08-14T15:08:00Z,00000200,00000000,0000.18,0000.17,-000.20,0000.41,-000.03,0000.07,-000.15,0000.02,-000.01,20.1,25.9,22.7,15.9,0675.6,31.0
2021-08-14T15:09:00Z,00000200,00000000,0000.30,0000.11,0000.13,0000.51,-000.04,0000.32,0000.20,-000.41,0000.14,20.1,25.9,22.7,15.9,0675.7,31.0
2021-08-14T15:10:00Z,00000200,00000000,-000.44,-000.13,0000.43,0000.18,-000.19,0000.23,-000.03,0000.21,-000.34,20.1,26.0,22.7,15.9,0675.7,31.0
2021-08-14T15:11:00Z,00000200,00000000,0000.28,0000.06,0000.07,-000.08,-000.35,0000.08,0000.04,-000.30,-000.28,20.1,25.9,22.7,15.9,0675.7,31.0
2021-08-14T15:12:00Z,00000200,00000000,-000.23,0000.15,-000.31,-000.24,0000.09,-000.24,-000.57,0000.11,0000.12,20.1,25.9,22.7,15.9,0675.7,31.0
2021-08-14T15:13:00Z,00000200,00000000,0000.52,0000.49,0000.13,0000.23,-000.21,-000.09,0000.16,-000.16,-000.10,20.1,25.9,22.6,15.8,0675.7,31.0
2021-08-14T15:14:00Z,00000200,00000000,-000.39,0000.20,0000.11,0000.45,-000.07,-000.16,-000.16,-000.39,-000.29,20.1,25.9,22.6,15.8,0675.7,31.0
2021-08-14T15:15:00Z,00000200,00000000,-000.48,-000.03,0000.07,-000.58,0000.13,-000.11,0000.05,-000.05,0000.04,20.1,26.0,22.4,15.7,0675.7,31.0
2021-08-14T15:16:00Z,00000200,00000000,-000.28,0000.17,-000.23,-000.02,0000.20,-000.27,-000.08,0000.25,-000.08,20.1,25.9,22.5,15.8,0675.7,31.0
2021-08-14T15:17:00Z,00000200,00000000,0000.11,0000.27,0000.13,-000.06,0000.06,0000.00,0000.09,0000.09,0000.22,20.1,26.0,22.6,15.8,0675.8,31.0
2021-08-14T15:18:00Z,00000200,00000000,0000.24,0000.44,0000.22,-000.20,0000.10,0000.37,-000.27,-000.04,-000.08,20.1,26.0,22.6,15.8,0675.8,31.0
2021-08-14T15:19:00Z,00000200,00000000,-000.02,0000.23,0000.17,-000.16,0000.23,-000.14,0000.09,-000.32,0000.02,20.1,25.9,22.7,15.9,0675.8,31.0
2021-08-14T15:20:00Z,00000200,00000000,0000.10,0000.19,0000.00,0000.18,0000.42,0000.11,0000.08,0000.22,-000.38,20.1,25.9,22.8,16.0,0675.7,31.0
2021-08-14T15:21:00Z,00000200,00000000,0000.05,0000.32,0000.12,0000.92,0000.23,0000.26,-000.01,0000.01,0000.37,20.1,26.0,22.8,16.0,0675.8,31.0
2021-08-14T15:22:00Z,00000200,00000000,-000.08,0000.19,0000.35,0000.39,-000.13,-000.04,-000.04,-000.14,-000.08,20.1,25.9,22.8,16.0,0675.8,31.0
2021-08-14T15:23:00Z,00000200,00000000,0000.12,0000.01,-000.24,0000.04,0000.41,0000.15,-000.03,-000.26,-000.09,20.1,26.0,22.8,16.0,0675.7,31.0
2021-08-14T15:24:00Z,00000200,00000000,-000.03,-000.11,-000.32,-000.56,0000.18,-000.14,-000.01,0000.04,-000.18,20.1,26.0,22.7,16.0,0675.7,31.0
2021-08-14T15:25:00Z,00000200,00000000,0000.05,-000.05,-000.07,-000.13,-000.02,-000.27,-000.43,-000.11,-000.33,20.1,26.0,22.7,16.0,0675.6,31.0
2021-08-14T15:26:00Z,00000200,00000000,0000.09,-000.12,-000.00,0000.10,-000.19,-000.23,0000.32,0000.12,0000.23,20.1,26.0,22.6,15.9,0675.7,31.0
2021-08-14T15:27:00Z,00000200,00000000,0000.81,0000.08,0000.17,0000.33,-000.01,0000.40,-000.71,-000.38,-000.01,20.2,26.0,22.6,15.9,0675.7,31.0
2021-08-14T15:28:00Z,00000200,00000000,-000.33,0000.28,0000.26,-000.14,-000.10,-000.41,0000.08,0000.05,-000.44,20.2,26.0,22.5,15.8,0675.7,31.0
2021-08-14T15:29:00Z,00000200,00000000,-000.23,-000.03,0000.06,0000.30,-000.14,-000.29,-000.17,-000.42,-000.00,20.2,26.0,22.3,15.7,0675.7,31.0
2021-08-14T15:30:00Z,00000200,00000000,0000.43,0000.41,0000.22,-000.63,-000.03,-000.01,-000.13,-000.05,-000.03,20.2,26.0,22.3,15.7,0675.7,31.0
2021-08-14T15:31:00Z,00000200,00000000,-000.42,0000.21,-000.16,0000.34,0000.19,-000.20,-000.23,0000.19,0000.09,20.2,26.0,22.5,15.8,0675.8,31.0
2021-08-14T15:32:00Z,00000200,00000000,0000.24,0000.15,-000.12,0000.10,-000.09,-000.08,0000.46,-000.03,-000.18,20.2,26.0,22.4,15.8,0675.7,31.0
2021-08-14T15:33:00Z,00000200,00000000,-000.25,0000.37,0000.20,-000.41,-000.06,-000.04,0000.13,0000.03,0000.23,20.2,26.0,22.4,15.8,0675.8,31.0
2021-08-14T15:34:00Z,00000200,00000000,-000.72,0000.31,0000.08,0000.26,0000.29,0000.13,-000.11,-000.21,-000.27,20.2,26.0,22.5,15.8,0675.8,31.0
2021-08-14T15:35:00Z,00000200,00000000,-000.57,0000.29,-000.02,0000.06,0000.27,0000.02,-000.37,-000.25,-000.22,20.2,26.0,22.5,15.9,0675.7,31.0
2021-08-14T15:36:00Z,00000200,00000000,0000.47,-000.12,0000.43,0000.26,0000.20,0000.08,0000.10,0000.05,0000.04,20.2,26.0,22.4,15.8,0675.8,31.0
2021-08-14T15:37:00Z,00000200,00000000,0000.49,0000.27,0000.02,0000.45,-000.01,-000.33,-000.13,-000.31,-000.20,20.2,26.0,22.3,15.8,0675.7,31.0
2021-08-14T15:38:00Z,00000200,00000000,0000.82,0000.17,0000.13,-000.03,0000.06,0000.38,-000.20,-000.09,0000.13,20.3,26.0,22.3,15.7,0675.8,31.0
2021-08-14T15:39:00Z,00000200,00000000,0000.15,0000.06,-000.24,-000.40,0000.02,-000.32,-000.07,-000.09,-000.34,20.3,26.0,22.4,15.8,0675.8,31.1
2021-08-14T15:40:00Z,00000200,00000000,0000.18,0000.03,0000.05,-000.29,0000.07,-000.14,0000.22,0000.50,0000.06,20.3,26.1,22.3,15.7,0675.8,31.0
2021-08-14T15:41:00Z,00000200,00000000,0000.04,0000.20,-000.05,-000.09,0000.05,0000.11,-000.08,-000.21,-000.06,20.3,26.1,22.4,15.8,0675.7,31.0
2021-08-14T15:42:00Z,00000200,00000000,0000.30,0000.14,0000.21,-000.45,0000.05,0000.02,-000.35,-000.40,-000.09,20.3,26.1,22.1,15.6,0675.7,31.0
2021-08-14T15:43:00Z,00000200,00000000,-000.13,0000.68,0000.16,-000.20,-000.31,-000.32,0000.28,0000.17,0000.02,20.3,26.1,22.1,15.7,0675.7,31.0
2021-08-14T15:44:00Z,00000200,00000000,-000.50,0000.20,0000.35,-000.24,0000.11,0000.19,-000.33,-000.52,0000.00,20.3,26.1,22.0,15.6,0675.8,31.1
2021-08-14T15:45:00Z,00000200,00000000,0000.24,0000.20,0000.32,0000.17,0000.09,-000.10,-000.09,0000.19,0000.16,20.3,26.1,22.1,15.6,0675.8,31.1
2021-08-14T15:46:00Z,00000200,00000000,-000.38,0000.25,0000.16,0000.22,-000.12,0000.12,0000.19,-000.00,-000.30,20.4,26.1,22.2,15.7,0675.7,31.0
2021-08-14T15:47:00Z,00000200,00000000,-000.44,0000.17,0000.05,0000.43,-000.18,0000.22,-000.20,0000.26,-000.31,20.4,26.1,22.0,15.5,0675.8,31.0
2021-08-14T15:48:00Z,00000200,00000000,-000.61,0000.21,-000.07,-000.18,-000.06,-000.23,-000.11,-000.32,0000.40,20.4,26.1,22.1,15.6,0675.7,31.0
2021-08-14T15:49:00Z,00000200,00000000,-000.79,0000.37,-000.03,-000.33,0000.01,-000.33,0000.30,0000.26,0000.08,20.4,26.1,22.1,15.6,0675.7,31.0
2021-08-14T15:50:00Z,00000200,00000000,0000.16,0000.36,0000.27,0000.35,0000.26,-000.33,-000.67,-000.63,-000.57,20.4,26.2,22.1,15.6,0675.7,31.1
2021-08-14T15:51:00Z,00000200,00000000,0000.11,0000.02,-000.15,0000.66,-000.09,0000.09,0000.06,-000.10,-000.11,20.4,26.2,22.0,15.6,0675.8,31.1
2021-08-14T15:52:00Z,00000200,00000000,-000.05,0000.11,-000.04,0000.27,0000.01,0000.44,0000.55,0000.48,0000.34,20.5,26.2,22.0,15.6,0675.7,31.1
2021-08-14T15:53:00Z,00000200,00000000,0000.19,0000.17,0000.11,0000.07,0000.20,0000.11,-000.27,-000.32,-000.29,20.5,26.2,22.0,15.6,0675.7,31.0
2021-08-14T15:54:00Z,00000200,00000000,0000.50,0000.21,-000.05,0000.56,-000.05,-000.15,-000.18,-000.07,0000.12,20.5,26.2,22.1,15.6,0675.8,31.0
2021-08-14T15:55:00Z,00000200,00000000,-000.08,0000.11,0000.05,0000.01,-000.15,-000.28,-000.43,-000.00,-000.43,20.5,26.2,21.9,15.5,0675.7,31.1
2021-08-14T15:56:00Z,00000200,00000000,0000.27,0000.14,0000.12,0000.01,-000.14,-000.20,0000.18,-000.13,0000.01,20.5,26.2,21.8,15.4,0675.7,31.1
2021-08-14T15:57:00Z,00000200,40000000,,,,,,,-000.07,-000.24,-000.07,20.5,26.3,22.0,15.5,0675.8,31.1
2021-08-14T15:58:00Z,00000200,60000000,,,,,,,-000.34,-000.14,-000.13,20.4,26.3,21.9,15.2,0674.8,31.1
2021-08-14T15:59:00Z,00000200,20000000,,,,,,,0000.23,-000.09,-000.20,20.4,26.4,21.7,15.1,0674.8,31.1
